Location: Sternwarte auf dem Internationalen Platz Vogelsang IP
(50.5721°N, 6.4398°E)
Time: 19:33:55
(UTC+01:00)

A-11 Canister half - Pass Details

Date: 12 December 2025
Orbit: 1511 x 1688 km, 47.2° (Epoch: 19 January)

Event Time Altitude Azimuth Distance (km) Brightness Sun altitude
Rises 17:41:43 0° 251° (WSW) 4,680 13.8 -10.7°
Reaches altitude 10° 17:44:44 10° 249° (WSW) 3,715 12.6 -11.2°
Maximum altitude 17:54:03 70° 168° (SSE) 1,665 9.2 -12.5°
Enters shadow 18:02:33 15° 89° (E) 3,481 10.3 -13.8°
Drops below altitude 10° 18:03:46 10° 88° (E) 3,856 - -14.0°
Sets 18:06:57 0° 86° (E) 4,866 - -14.4°
